Flag for Czech Republic Weather past 2 weeks in Brno, Czech Republic

Now
60 °F

Partly sunny.


Feels Like: 60 °F
Forecast: 52 / 60 °F
Wind: 7 mph from Northeast

Location: Brno / Turany

Current Time: May 22, 2015 at 10:58:01 AM

Latest Report: May 22, 2015 at 10:00 AM


Visibility: 13 mi

Pressure: 30.20 "Hg

Humidity: 57%

Dew point: 45 °F

Location of BrnoLocation

Historic Weather in Brno — Graph

°F

Brno temperature yesterday

Maximum temperature yesterday: 58 °F (at 5:00 PM)
Minimum temperature yesterday: 49 °F (at 2:00 AM)
Average temperature yesterday: 54 °F

Past Weeks' High & Low Weather Summary

 TemperatureHumidityPressure
High73 °F (May 12, 3:00 PM)97% (May 10, 3:00 AM)30.41 "Hg (May 10, 3:00 AM)
Low41 °F (May 18, 6:00 AM)31% (May 16, 1:00 PM)29.74 "Hg (May 14, 4:00 AM)
Average59 °F62%30.05 "Hg
* Reported May 7 9:00 AM — May 22 9:00 AM, Brno, Weather by CustomWeather, © 2015

Note: Actual official high and low records may vary slightly from our data, if they occured in-between our weather recording intervals... More about our weather records

Advertising

Brno weather history for previous 24 hours

 ConditionsComfort  
Time TempWeatherWind HumidityBarometerVisibility
9:00 AM
Fri, May 22
57 °FPartly sunny.7 mph63%30.21 "Hg12 mi
8:00 AM54 °FPartly sunny.6 mph66%30.21 "Hg12 mi
7:00 AM53 °FPartly sunny.6 mph70%30.22 "Hg12 mi
6:00 AM51 °FOvercast.7 mph75%30.21 "Hg12 mi
5:00 AM51 °FPassing clouds.5 mph77%30.21 "Hg12 mi
4:00 AM51 °FPassing clouds.5 mph76%30.21 "Hg12 mi
3:00 AM51 °FPassing clouds.3 mph76%30.22 "Hg16 mi
2:00 AM51 °FPassing clouds.6 mph73%30.21 "Hg16 mi
1:00 AM53 °FPassing clouds.7 mph67%30.19 "Hg16 mi
12:00 AM54 °FOvercast.6 mph64%30.19 "Hg16 mi
11:00 PM
Thu, May 21
55 °FOvercast.6 mph66%30.19 "Hg16 mi
10:00 PM55 °FOvercast.8 mph66%30.19 "Hg16 mi
9:00 PM56 °FOvercast.6 mph65%30.17 "Hg19 mi
8:00 PM57 °FOvercast.7 mph66%30.16 "Hg25 mi
7:00 PM57 °FOvercast.6 mph58%30.15 "Hg25 mi
6:00 PM58 °FOvercast.7 mph56%30.13 "Hg25 mi
5:00 PM58 °FOvercast.7 mph59%30.14 "Hg25 mi
4:00 PM58 °FOvercast.9 mph60%30.13 "Hg25 mi
3:00 PM57 °FOvercast.6 mph63%30.14 "Hg25 mi
2:00 PM57 °FOvercast.7 mph60%30.12 "Hg22 mi
1:00 PM56 °FOvercast.5 mph62%30.14 "Hg22 mi
12:00 PM56 °FOvercast.3 mph74%30.13 "Hg16 mi
10:00 AM54 °FOvercast.2 mph75%30.11 "Hg16 mi
Weather by CustomWeather, © 2015

See weather overviewHow to use our weather pages